Regional Weather Roundup
Issued by NWS

Home | Current Version | Previous Version | Text Only | Print | Product List | Glossary On
Versions: 1 2 3 4 5 6 7 8 9 10 11 12 13 14 15 16 17 18 19 20 21 22 23 24 25 26 27 28 29 30 31 32 33 34 35 36 37 38 39 40 41 42 43 44 45 46 47 48 49 50
456
ASUS44 KLIX 211105
RWRLA
LOUISIANA WEATHER ROUNDUP
NATIONAL WEATHER SERVICE NEW ORLEANS LA
600 AM CDT TUE OCT 21 2014

NOTE: "FAIR" INDICATES FEW OR NO CLOUDS BELOW 12,000 FEET WITH NO
      SIGNIFICANT WEATHER AND/OR OBSTRUCTIONS TO VISIBILITY.
      SKY/WX - SKY CONDITION AND SIGNIFICANT WEATHER.
      TMP - AIR TEMPERATURE.    DP   - DEWPOINT TEMPERATURE.
      RH  - RELATIVE HUMIDITY.  PRES - PRESSURE.
      HX  - HEAT INDEX.         WCI  - WIND CHILL INDEX.

*  THESE STATIONS ARE NOT NWS OR FAA STATIONS AND ARE NOT UNDER
   NWS QUALITY CONTROL.

LAZ040-048-061>063-065-066-069-211200-
SOUTHEAST LOUISIANA

CITY           SKY/WX    TMP DP  RH WIND       PRES   REMARKS
N.O. AUDUBON   NOT AVBL
N.O. INTL ARPT CLEAR     59  54  83 CALM      30.02R
N.O. LAKEFRONT CLEAR     68  56  65 NE12      30.03R
N.O. DOWNTOWN* FAIR      66  52  59 NE6       30.03R
SLIDELL        CLEAR     50  48  93 CALM      30.03R
BATON ROUGE    CLEAR     55  51  86 NE5       30.04R
BOOTHVILLE     CLEAR     71  60  68 NE6       30.00S
BELLE CHASSE   CLEAR     54  51  90 CALM      30.01S
BOGALUSA*        N/A     49  46  89 CALM      30.06R
NEW ROADS*     FAIR      55  53  92 CALM      30.04R
GONZALES*      FAIR      55  55 100 CALM      30.03R
HAMMOND*       CLEAR     54  48  82 CALM      30.05R
HOUMA*         CLEAR     56  56 100 CALM      30.01S
PORT FOURCHON* SUNNY     70  61  73 NE7       30.03R

$$

LAZ041-044-053-054-211200-
SOUTHWEST LOUISIANA

CITY           SKY/WX    TMP DP  RH WIND       PRES   REMARKS
LAKE CHARLES   CLEAR     57  53  86 NE5       30.03R
LAFAYETTE      CLEAR     57  55  93 CALM      30.03R
PATTERSON      NOT AVBL
SALT POINT       N/A     60  57  89 CALM      30.01R
NEW IBERIA     CLEAR     57  54  89 CALM      30.03S
CHENAULT AIRPK NOT AVBL

$$

LAZ027-028-211200-
CENTRAL LOUISIANA

CITY           SKY/WX    TMP DP  RH WIND       PRES   REMARKS
FORT POLK      CLEAR     57  53  87 NE5       30.04R
ALEXANDRIA INT CLEAR     54  53  97 CALM      30.04R
ALEXANDRIA     CLEAR     52  50  93 CALM      30.05R

$$

LAZ001-002-211200-
NORTHWEST LOUISIANA

CITY           SKY/WX    TMP DP  RH WIND       PRES   REMARKS
SHREVEPORT     CLEAR     55  53  93 CALM      30.06R
BARKSDALE AFB  CLEAR     54  53  98 CALM      30.07R
DTN SHREVEPORT CLEAR     56  54  93 CALM      30.07R

$$

LAZ014-016-211200-
NORTHEAST LOUISIANA

CITY           SKY/WX    TMP DP  RH WIND       PRES   REMARKS
MONROE         CLEAR     55  54  94 CALM      30.07S
TALLULAH       CLEAR     48  47  96 CALM      30.07R

$$




USA.gov is the U.S. government's official web portal to all federal, state and local government web resources and services.